Regional Weather Roundup
Issued by NWS

Home | Current Version | Previous Version | Text Only | Print | Product List | Glossary On
Versions: 1 2 3 4 5 6 7 8 9 10 11 12 13 14 15 16 17 18 19 20 21 22 23 24 25 26 27 28 29 30 31 32 33 34 35 36 37 38 39 40 41 42 43 44 45 46 47 48 49 50
000
ASUS43 KDTX 291710
RWRMI
MICHIGAN HOURLY REGIONAL WEATHER ROUNDUP
NATIONAL WEATHER SERVICE DETROIT/PONTIAC MI
100 PM EDT TUE JUL 29 2014

NOTE: "FAIR" INDICATES FEW OR NO CLOUDS BELOW 12,000 FEET WITH NO
SIGNIFICANT WEATHER AND/OR OBSTRUCTION TO VISIBILITY.

MIZ047>049-052>055-059>063-066>070-074>076-081>083-291800-
SOUTHEAST LOWER MICHIGAN

CITY           SKY/WX    TMP DP  RH WIND       PRES   REMARKS
ADRIAN         CLOUDY    66  50  56 NW6       30.03F
ALMA           MOSUNNY   70  56  61 W9        29.97F
ANN ARBOR      CLOUDY    66  51  58 W9        30.01F
BAD AXE        CLOUDY    64  58  81 W7        29.95F
DETROIT CITY   CLOUDY    71  49  45 VRB7      29.99F
DETROIT        CLOUDY    70  52  52 SW9       30.01F
FLINT          PTSUNNY   68  53  58 VRB7      29.98F
GROSSE ILE     MOSUNNY   70  52  52 W8        30.00F
HILLSDALE      PTSUNNY   68  52  55 W5        30.03F
HOWELL         CLOUDY    67  53  59 W10       30.00S

CITY           SKY/WX    TMP DP  RH WIND       PRES   REMARKS
JACKSON        CLOUDY    68  52  56 W7        30.01F
LAMBERTVILLE   CLOUDY    70  50  49 W6        30.03S
LANSING        MOSUNNY   69  56  62 W9        30.00F
LAPEER         NOT AVBL
MASON          CLOUDY    68  54  62 SW7       30.00S
MONROE         MOSUNNY   70  52  52 SW8       30.00F
MT. CLEMENS    PTSUNNY   71  52  51 SW9       29.97F
PONTIAC        CLOUDY    65  51  60 W10       29.99S
PORT HOPE        N/A     63  56  78 W7        29.92F
PORT HURON     CLOUDY    68  54  60 W7        29.98S
TRI CITIES     PTSUNNY   71  58  63 W13       29.96F
YPSILANTI      CLOUDY    71  51  49 SW12      30.01F
$$
MIZ043>046-050>051-056>058-064>065-071>073-077>080-291800-
SOUTHWEST LOWER MICHIGAN

CITY           SKY/WX    TMP DP  RH WIND       PRES   REMARKS
BATTLE CREEK   PTSUNNY   68  57  68 W10       30.02F
BENTON HARBOR  MOSUNNY   67  57  70 NW7       30.03F
BIG RAPIDS     PTSUNNY   71  55  56 NW14G23   29.97S
COLDWATER      LGT RAIN  65  55  71 W9        30.03S
HOLLAND        SUNNY     72  59  63 W12G17    30.02S
GRAND RAPIDS   PTSUNNY   73  56  54 NW9       30.00S
KALAMAZOO      CLOUDY    71  58  63 NW8       30.02F
MARSHALL       MOSUNNY   67  55  64 SW8       30.01F
MUSKEGON       MOSUNNY   71  56  58 NW9       30.00F
$$
MIZ016>042-291800-
NORTHERN LOWER MICHIGAN

CITY           SKY/WX    TMP DP  RH WIND       PRES   REMARKS
BEAVER ISLAND  MOSUNNY   66  58  75 W10G16    29.96S
BELLAIRE       CLOUDY    64  56  74 W7        29.96S
CADILLAC       PTSUNNY   67  57  68 W9        29.97S
CHARLEVOIX     CLOUDY    62  59  88 W9        29.99S
FRANKFORT      SUNNY     68  55  62 N6        29.99R
GAYLORD        MOSUNNY   65  52  62 W12G17    29.95F
GRAYLING       MOSUNNY   69  56  62 W10G18    29.96S
HARBOR SPRINGS CLOUDY    63  56  79 SW8       29.95S
HOUGHTON LAKE  PTSUNNY   68  55  63 NW14      29.96S
MANISTEE       SUNNY     64  54  68 N8        30.00S
OSCODA         CLOUDY    69  56  62 W10       29.91F
PELLSTON       CLOUDY    62  55  77 W12       29.95R
TRAVERSE CITY  CLOUDY    69  56  62 NW7       29.95F
$$
MIZ007>008-015-291800-
EASTERN UPPER MICHIGAN

CITY           SKY/WX    TMP DP  RH WIND       PRES   REMARKS
KINROSS        PTSUNNY   64  55  72 NW14      29.92S
MACKINAC ISLAN PTSUNNY   64  57  77 W9        29.92S
NEWBERRY       PTSUNNY   66  55  66 NW13G21   29.94S
S. S. MARIE    SUNNY     63  53  70 W9        29.91F
$$
MIZ004>006-011>014-085-291800-
CENTRAL UPPER MICHIGAN

CITY           SKY/WX    TMP DP  RH WIND       PRES   REMARKS
MANISTIQUE     CLOUDY    68  57  68 NW10      29.95S
ESCANABA       CLOUDY    66  54  63 N9        29.97F
MENOMINEE      MOSUNNY   70  55  60 NW6       29.97F
SAWYER-GWINN   CLOUDY    61  55  82 N8        29.99S
$$
MIZ001>003-009>011-084-291800-
WESTERN UPPER MICHIGAN

CITY           SKY/WX    TMP DP  RH WIND       PRES   REMARKS
IRON MOUNTAIN  PTSUNNY   70  53  54 NW13      29.99S
COPPER HARBOR    N/A     60  54  80 N13       29.98S
$$

ABBREVIATIONS USED IN REMARKS
   TC - TEMPERATURE IN CELSIUS
  WCI - WIND CHILL INDEX
   HX - HEAT INDEX
  VSB - VISIBILITY




USA.gov is the U.S. government's official web portal to all federal, state and local government web resources and services.